MST,Max TemperatureF,Mean TemperatureF,Min TemperatureF,Max Dew PointF,MeanDew PointF,Min DewpointF,Max Humidity, Mean Humidity, Min Humidity, Max Sea Level PressureIn, Mean Sea Level PressureIn, Min Sea Level PressureIn, Max VisibilityMiles, Mean VisibilityMiles, Min VisibilityMiles, Max Wind SpeedMPH, Mean Wind SpeedMPH, Max Gust SpeedMPH,PrecipitationIn, CloudCover, Events, WindDirDegrees
2013-6-1,81,65,48,20,12,9,39,24,8,29.99,29.91,29.83,10,10,10,22,8,29,0.00,0,,70
2013-6-2,82,62,42,31,23,13,35,24,12,30.17,29.85,29.75,10,10,10,30,9,38,0.00,0,,218
2013-6-3,80,61,41,31,24,20,57,34,11,29.90,29.84,29.78,10,10,10,24,8,32,0.00,0,,222
2013-6-4,79,60,40,29,21,15,49,30,11,29.93,29.89,29.85,10,10,10,24,8,33,0.00,0,,218
2013-6-5,82,62,42,26,23,18,37,24,11,29.93,29.89,29.81,10,10,10,13,4,21,0.00,1,,186
2013-6-6,83,63,43,30,22,16,45,27,9,29.91,29.87,29.83,10,10,10,22,2,30,0.00,0,,196
2013-6-7,87,64,41,28,17,8,45,26,6,29.90,29.84,29.73,10,10,10,16,5,25,0.00,0,,339
2013-6-8,91,68,45,29,20,17,34,21,7,29.89,29.81,29.77,10,10,10,26,8,33,0.00,0,,258
2013-6-9,90,70,49,30,24,19,35,22,9,29.91,29.88,29.83,10,10,10,24,8,33,0.00,0,,221
2013-6-10,85,68,50,25,15,8,30,19,7,29.93,29.88,29.81,10,10,10,30,10,41,0.00,0,,218
2013-6-11,85,64,42,34,20,12,36,22,7,29.98,29.93,29.89,10,10,10,29,10,41,0.00,0,,236
2013-6-12,87,69,51,31,24,22,29,19,9,29.97,29.94,29.91,10,10,10,25,6,32,0.00,0,,228
2013-6-13,84,66,47,36,30,26,42,29,15,29.98,29.92,29.84,10,10,10,30,8,39,0.00,0,,227
2013-6-14,84,65,45,31,28,19,49,31,13,29.93,29.88,29.81,10,10,10,25,6,35,0.00,0,,236
2013-6-15,80,62,44,51,34,28,53,36,19,30.22,29.94,29.88,10,10,8,30,8,43,0.01,1,Rain,227
2013-6-16,82,62,41,34,27,22,57,35,13,30.03,29.98,29.93,10,10,10,28,7,38,0.00,0,,224
2013-6-17,82,61,40,29,20,9,48,28,8,30.29,29.97,29.87,10,10,10,23,7,30,0.00,0,,202
2013-6-18,82,61,40,21,14,8,27,18,9,29.94,29.87,29.77,10,10,10,26,10,36,0.00,0,,218
2013-6-19,80,63,45,18,15,10,23,16,9,29.80,29.75,29.72,10,10,10,30,14,37,0.00,0,,227
2013-6-20,80,62,44,23,19,14,33,22,10,29.84,29.81,29.76,10,10,10,28,12,36,0.00,0,,238
2013-6-21,80,62,44,30,20,15,42,26,9,29.90,29.85,29.81,10,10,9,28,10,37,0.00,0,,218
2013-6-22,80,60,40,27,22,18,42,28,13,29.92,29.88,29.83,10,10,10,25,8,31,0.00,0,,216
2013-6-23,79,60,41,27,17,10,39,23,7,30.13,29.84,29.73,10,10,10,30,10,37,0.00,0,,215
2013-6-24,76,59,41,31,22,15,39,26,12,29.89,29.83,29.77,10,10,10,30,13,40,0.00,0,,227
2013-6-25,80,63,45,29,26,23,39,27,15,30.23,29.95,29.88,10,10,10,21,8,30,0.00,0,,237
2013-6-26,84,65,45,27,21,17,38,24,10,30.06,30.03,29.97,10,10,7,22,7,31,0.00,0,,210
2013-6-27,92,72,52,37,27,20,38,23,8,30.08,30.04,29.97,10,10,7,18,5,25,0.00,0,,227
2013-6-28,96,75,53,37,31,25,45,27,9,30.03,29.96,29.89,10,10,10,17,6,25,0.00,0,,312
2013-6-29,91,74,57,37,33,31,39,25,11,29.97,29.91,29.85,10,10,10,20,6,28,0.00,0,,257
2013-6-30,89,73,57,46,38,31,43,28,13,30.29,29.90,29.84,10,10,9,18,3,26,0.02,1,Rain-Thunderstorm,246